Darstellungsparameter: Aktuell verwendete Einstellungen:
Skalierung der Graphiken ... ?
xyx+y,   Skalierungsfaktor:      Skalierung: Modus: x, Faktor: 1
Darstellungszeitraum ... ?
Vom - - bis: - -   Zeitraum: 28.09.2010 - 28.09.2010
Min/Max/Avg-Anzeige ... ?
Zeige MMA aktuell
Zeige MMA Monat
Zeige MMA alles
Zeige --A aktuell
Zeige --A Monat
Zeige --A alles
Keine MMA-Anzeige
MMA:
Minimum Maximum Average (ber die Originaldaten)
MMA-Basis: 28.09.2010 - 28.09.2010
Quicknavigation für Darstellung... ?
Tage:      1T, 2T, 3T, 5T -1T -2T -3T -5T +1T +2T +3T +5T
Wochen: 1W, 2W, 3W -1W -2W -3W +1W +2W +3W
Monate: 1M, 3M, 6M -1M -3M -6M +1M +3M +6M
Jahre:    1J, 3J, 5J, 10J -1J -3J -5J -10J +1J +3J +5J +10J
Nutze für die Darstellung ... ?
Originaldaten oder Mittelwerte auf ...
Stundenbasis Tagesbasis Wochenbasis
Monatsbasis Jahresbasis      Datenbasis: Original-Daten
Darstellen als:
Statistik (Auto) Statistik J:M      Darstellung:
Zur Graphik,    zurück zur Übersicht aller Sensoren.
 
Tabellarische Datenbersicht: ?
 
Sensor: Nr:Datum:Temp:Abs-Feuchte:Windchill:Wind:
Aussen-T/F 1 28-09-2010 00:00:10 10.1 C 8.7 g/m*3 10.1 C 0 km/h
2 28-09-2010 00:12:10 10 C 8.64 g/m*3 10 C 0 km/h
3 28-09-2010 00:24:10 10 C 8.64 g/m*3 10 C 0 km/h
4 28-09-2010 00:36:10 10 C 8.64 g/m*3 10 C 0 km/h
5 28-09-2010 00:48:10 9.9 C 8.78 g/m*3 9.9 C 0 km/h
6 28-09-2010 01:00:10 10 C 8.74 g/m*3 10 C 0 km/h
7 28-09-2010 01:12:11 10 C 8.74 g/m*3 10 C 0 km/h
8 28-09-2010 01:24:11 10 C 8.74 g/m*3 10 C 0 km/h
9 28-09-2010 01:36:11 10 C 8.74 g/m*3 10 C 0 km/h
10 28-09-2010 01:48:11 9.9 C 8.78 g/m*3 9.9 C 0 km/h
11 28-09-2010 02:00:11 9.9 C 8.78 g/m*3 9.9 C 0 km/h
12 28-09-2010 02:12:11 9.9 C 8.78 g/m*3 9.9 C 0 km/h
13 28-09-2010 02:24:11 9.9 C 8.78 g/m*3 9.9 C 0 km/h
14 28-09-2010 02:36:11 9.9 C 8.78 g/m*3 9.9 C 0 km/h
15 28-09-2010 02:48:11 9.9 C 8.78 g/m*3 9.9 C 0 km/h
16 28-09-2010 03:00:11 9.9 C 8.87 g/m*3 9.9 C 0 km/h
17 28-09-2010 03:12:11 9.9 C 8.87 g/m*3 9.9 C 0 km/h
18 28-09-2010 03:24:11 9.9 C 8.87 g/m*3 9.9 C 0 km/h
19 28-09-2010 03:36:12 9.9 C 8.87 g/m*3 9.9 C 0 km/h
20 28-09-2010 03:48:12 9.9 C 8.87 g/m*3 9.9 C 0 km/h
21 28-09-2010 04:00:12 9.9 C 8.87 g/m*3 9.9 C 0 km/h
22 28-09-2010 04:12:12 9.9 C 8.87 g/m*3 9.9 C 0 km/h
23 28-09-2010 04:24:12 9.9 C 8.87 g/m*3 9.9 C 0 km/h
24 28-09-2010 04:36:12 9.9 C 8.87 g/m*3 9.9 C 0 km/h
25 28-09-2010 04:48:12 10 C 8.83 g/m*3 10 C 0 km/h
Sensor: Nr:Datum:Temp:Abs-Feuchte:Windchill:Wind:
Aussen-T/F 26 28-09-2010 05:00:12 10 C 8.93 g/m*3 10 C 0 km/h
27 28-09-2010 05:12:12 10 C 8.93 g/m*3 10 C 0 km/h
28 28-09-2010 05:24:12 10 C 8.93 g/m*3 10 C 0 km/h
29 28-09-2010 05:36:12 10 C 8.93 g/m*3 10 C 0 km/h
30 28-09-2010 05:48:12 10 C 8.93 g/m*3 10 C 0 km/h
31 28-09-2010 06:00:12 10.1 C 8.98 g/m*3 10.1 C 0 km/h
32 28-09-2010 06:12:12 10.1 C 8.98 g/m*3 10.1 C 0 km/h
33 28-09-2010 06:24:12 10.1 C 8.98 g/m*3 10.1 C 0 km/h
34 28-09-2010 06:36:12 10.1 C 8.98 g/m*3 10.1 C 0 km/h
35 28-09-2010 06:48:12 10 C 8.93 g/m*3 10 C 0 km/h
36 28-09-2010 07:00:12 10 C 8.93 g/m*3 10 C 0 km/h
37 28-09-2010 07:12:12 10 C 8.93 g/m*3 10 C 0 km/h
38 28-09-2010 07:24:12 10 C 8.93 g/m*3 10 C 0 km/h
39 28-09-2010 07:36:13 10 C 8.93 g/m*3 10 C 0 km/h
40 28-09-2010 07:48:01 10 C 8.93 g/m*3 10 C 0 km/h
41 28-09-2010 08:00:01 10 C 8.93 g/m*3 10 C 0 km/h
42 28-09-2010 08:12:02 10 C 8.93 g/m*3 10 C 0 km/h
43 28-09-2010 08:24:02 10 C 8.93 g/m*3 10 C 0 km/h
44 28-09-2010 08:36:02 10.1 C 8.98 g/m*3 10.1 C 0 km/h
45 28-09-2010 08:48:03 10.1 C 8.98 g/m*3 10.1 C 0 km/h
46 28-09-2010 09:00:03 10.1 C 8.98 g/m*3 10.1 C 0 km/h
47 28-09-2010 09:12:03 10.2 C 9.04 g/m*3 10.2 C 0 km/h
48 28-09-2010 09:24:02 10.2 C 9.04 g/m*3 10.2 C 0 km/h
49 28-09-2010 09:36:02 10.3 C 9.1 g/m*3 10.3 C 0 km/h
50 28-09-2010 09:48:02 10.4 C 9.16 g/m*3 10.4 C 0 km/h
Sensor: Nr:Datum:Temp:Abs-Feuchte:Windchill:Wind:
Aussen-T/F 51 28-09-2010 10:00:02 10.4 C 9.16 g/m*3 10.4 C 0 km/h
52 28-09-2010 10:12:02 10.5 C 9.21 g/m*3 10.5 C 0 km/h
53 28-09-2010 10:24:01 10.5 C 9.21 g/m*3 10.5 C 0 km/h
54 28-09-2010 10:36:02 10.7 C 9.33 g/m*3 10.7 C 0 km/h
55 28-09-2010 10:48:02 10.8 C 9.39 g/m*3 10.8 C 0 km/h
56 28-09-2010 11:00:02 11 C 9.51 g/m*3 11 C 0 km/h
57 28-09-2010 11:12:02 11 C 9.51 g/m*3 11 C 0 km/h
58 28-09-2010 11:24:02 11.2 C 9.63 g/m*3 11.2 C 0 km/h
59 28-09-2010 11:36:02 11.3 C 9.69 g/m*3 11.3 C 0 km/h
60 28-09-2010 11:48:02 11.4 C 9.75 g/m*3 11.4 C 0 km/h
61 28-09-2010 12:00:02 11.4 C 9.75 g/m*3 11.4 C 0 km/h
62 28-09-2010 12:12:02 11.4 C 9.65 g/m*3 11.4 C 0 km/h
63 28-09-2010 12:24:02 11.4 C 9.65 g/m*3 11.4 C 0 km/h
64 28-09-2010 12:36:02 11.5 C 9.71 g/m*3 11.5 C 0 km/h
65 28-09-2010 12:48:02 11.7 C 9.83 g/m*3 11.7 C 0 km/h
66 28-09-2010 13:00:02 11.6 C 9.67 g/m*3 11.6 C 0 km/h
67 28-09-2010 13:12:02 11.6 C 9.67 g/m*3 11.6 C 0 km/h
68 28-09-2010 13:24:03 11.8 C 9.79 g/m*3 11.8 C 0 km/h
69 28-09-2010 13:36:02 11.8 C 9.68 g/m*3 11.8 C 0 km/h
70 28-09-2010 13:48:03 11.9 C 9.74 g/m*3 11.9 C 0 km/h
71 28-09-2010 14:00:03 11.9 C 9.74 g/m*3 11.9 C 0 km/h
72 28-09-2010 14:12:02 11.8 C 9.68 g/m*3 11.8 C 0 km/h
73 28-09-2010 14:24:02 11.7 C 9.62 g/m*3 11.7 C 0 km/h
74 28-09-2010 14:36:02 11.7 C 9.62 g/m*3 11.7 C 0 km/h
75 28-09-2010 14:48:02 11.7 C 9.62 g/m*3 11.7 C 0 km/h
Sensor: Nr:Datum:Temp:Abs-Feuchte:Windchill:Wind:
Aussen-T/F 76 28-09-2010 15:00:02 11.7 C 9.62 g/m*3 11.7 C 0 km/h
77 28-09-2010 15:12:02 11.7 C 9.73 g/m*3 11.7 C 0 km/h
78 28-09-2010 15:24:02 11.7 C 9.73 g/m*3 11.7 C 0 km/h
79 28-09-2010 15:36:02 11.8 C 9.79 g/m*3 11.8 C 0 km/h
80 28-09-2010 15:48:02 11.8 C 9.79 g/m*3 11.8 C 0 km/h
81 28-09-2010 16:00:02 11.8 C 9.79 g/m*3 11.8 C 0 km/h
82 28-09-2010 16:12:01 11.8 C 9.79 g/m*3 11.8 C 0 km/h
83 28-09-2010 16:24:01 11.8 C 9.79 g/m*3 11.8 C 0 km/h
84 28-09-2010 16:36:02 11.9 C 9.96 g/m*3 11.9 C 0 km/h
85 28-09-2010 16:48:02 11.9 C 9.96 g/m*3 11.9 C 0 km/h
86 28-09-2010 17:00:02 11.9 C 9.96 g/m*3 11.9 C 0 km/h
87 28-09-2010 17:12:02 12 C 10.02 g/m*3 12 C 0 km/h
88 28-09-2010 17:24:02 12 C 10.02 g/m*3 12 C 0 km/h
89 28-09-2010 17:36:02 12 C 10.02 g/m*3 12 C 0 km/h
90 28-09-2010 17:48:02 12 C 10.02 g/m*3 12 C 0 km/h
91 28-09-2010 18:00:02 11.9 C 9.96 g/m*3 11.9 C 0 km/h
92 28-09-2010 18:12:02 11.9 C 9.96 g/m*3 11.9 C 0 km/h
93 28-09-2010 18:24:02 11.9 C 10.06 g/m*3 11.9 C 0 km/h
94 28-09-2010 18:36:02 11.8 C 10 g/m*3 11.8 C 0 km/h
95 28-09-2010 18:48:01 11.8 C 10 g/m*3 11.8 C 0 km/h
96 28-09-2010 19:00:01 11.8 C 10 g/m*3 11.8 C 0 km/h
97 28-09-2010 19:12:02 11.7 C 9.94 g/m*3 11.7 C 0 km/h
98 28-09-2010 19:24:01 11.7 C 9.94 g/m*3 11.7 C 0 km/h
99 28-09-2010 19:36:01 11.7 C 9.94 g/m*3 11.7 C 0 km/h
100 28-09-2010 19:48:01 11.7 C 9.94 g/m*3 11.7 C 0 km/h
Sensor: Nr:Datum:Temp:Abs-Feuchte:Windchill:Wind:
Aussen-T/F 101 28-09-2010 20:00:01 11.6 C 9.87 g/m*3 11.6 C 0 km/h
102 28-09-2010 20:12:02 11.6 C 9.87 g/m*3 11.6 C 0 km/h
103 28-09-2010 20:24:02 11.6 C 9.87 g/m*3 11.6 C 0 km/h
104 28-09-2010 20:36:01 11.6 C 9.87 g/m*3 11.6 C 0 km/h
105 28-09-2010 20:48:01 11.6 C 9.87 g/m*3 11.6 C 0 km/h
106 28-09-2010 21:00:01 11.6 C 9.87 g/m*3 11.6 C 0 km/h
107 28-09-2010 21:12:01 11.6 C 9.87 g/m*3 11.6 C 0 km/h
108 28-09-2010 21:24:02 11.6 C 9.87 g/m*3 11.6 C 0 km/h
109 28-09-2010 21:36:01 11.5 C 9.81 g/m*3 11.5 C 0 km/h
110 28-09-2010 21:48:03 11.6 C 9.87 g/m*3 11.6 C 0 km/h
111 28-09-2010 22:00:03 11.6 C 9.87 g/m*3 11.6 C 0 km/h
112 28-09-2010 22:12:02 11.6 C 9.87 g/m*3 11.6 C 0 km/h
113 28-09-2010 22:24:03 11.6 C 9.87 g/m*3 11.6 C 0 km/h
114 28-09-2010 22:36:02 11.7 C 9.94 g/m*3 11.7 C 0 km/h
115 28-09-2010 22:48:03 11.6 C 9.87 g/m*3 11.6 C 0 km/h
116 28-09-2010 23:00:03 11.6 C 9.87 g/m*3 11.6 C 0 km/h
117 28-09-2010 23:12:02 11.6 C 9.87 g/m*3 11.6 C 0 km/h
118 28-09-2010 23:24:02 11.6 C 9.87 g/m*3 11.6 C 0 km/h
119 28-09-2010 23:36:02 11.6 C 9.87 g/m*3 11.6 C 0 km/h
120 28-09-2010 23:48:02 11.6 C 9.87 g/m*3 11.6 C 0 km/h

Legende:
   Min
   Max


Maximal/Minimal-Werte vom 28.09.2010 - 28.09.2010

Sensor Min Max Avg
Temp
(Aussen-T/F)
9.9 °C
28-09-2010  00:48:10
12 °C
28-09-2010  17:12:02
10.93 °C
Abs-Feuchte
(Aussen-T/F)
8.64 g/m*3
28-09-2010  00:12:10
10.06 g/m*3
28-09-2010  18:24:02
9.33 g/m*3
Windchill
(Aussen-T/F)
9.9 C
28-09-2010  00:48:10
12 C
28-09-2010  17:12:02
10.84 C

Die Daten stammen von einer Davis Vantage Pro 2 Wetter-Station und werden unter Linux mit der Software wview2wettercgi und aufbereitet. Alle Angaben erfolgen ohne Gewähr für ihre Vollständigkeit oder Richtigkeit.
Kontakt: Rainer Krienke krienke@uni-koblenz.de . Meine Webseiten an der Uni Koblenz oder privat.
Version: $Revision: 0.78 $